Falfurrias, TX

1:51 AM CST on December 09, 2019 (GMT -0600)
Falfurrias

Weather History for KBKS - October, 2019

Change the Weather History Date:

Friday, October 25, 2019

  Actual Average (WUND) Record (WUND)
Temperature  
Mean Temperature 64 °F -  
Max Temperature 76 °F - - (-1)
Min Temperature 52 °F - - (-1)
Degree Days  
Heating Degree Days 1    
Growing Degree Days 14 (Base 50)    
Moisture  
Dew Point 42 °F    
Average Humidity 51    
Maximum Humidity 87    
Minimum Humidity 31    
Precipitation  
Precipitation 0.00 in - - ()
Sea Level Pressure  
Sea Level Pressure 30.08 in    
Wind  
Wind Speed 14 mph ()    
Max Wind Speed 24 mph    
Max Gust Speed 36 mph    
Visibility 10.0 miles    
Events      
Averages and records for this station are not official NWS values.
T = Trace of Precipitation, MM = Missing Value Source: Averaged Metar Reports

Daily Weather History Graph

Daily Weather History Graph

Search for Another Location

Airport or City:

Astronomy

Oct. 25, 2019 Rise Set
Actual Time 7:38 AM CDT 6:54 PM CDT
Civil Twilight 7:14 AM CDT 7:18 PM CDT
Nautical Twilight 6:46 AM CDT 7:45 PM CDT
Astronomical Twilight 6:19 AM CDT 8:12 PM CDT
Moon 4:47 AM CDT (10/25) 5:36 PM CDT (10/25)
Length of Visible Light 12h 04m
Length of Day
11h 16m
Waning Crescent, 9% of the Moon is Illuminated
Oct 25
Waning Crescent
Oct 27
New
Nov 4
First Quarter
Nov 12
Full
Nov 19
Last Quarter

Hourly Weather History & Observations

Time (CDT) Temp. Dew Point Humidity Pressure Visibility Wind Dir Wind Speed Gust Speed Precip Events Conditions
12:15 AM 76.5 °F 72.5 °F 87% 29.90 in 10.0 mi North 3.5 mph - N/A   Scattered Clouds
12:55 AM 76.8 °F 72.3 °F 86% 29.92 in 10.0 mi WNW 12.7 mph 18.4 mph N/A   Overcast
5:15 AM - - N/A% 30.04 in - NNW 16.1 mph - N/A   Unknown
5:35 AM 53.6 °F 46.8 °F 78% 30.05 in 10.0 mi NNW 13.8 mph 27.6 mph N/A   Overcast
5:55 AM 53.6 °F 45.5 °F 74% 30.06 in 10.0 mi NNW 17.3 mph 24.2 mph N/A   Overcast
6:15 AM 53.8 °F 46.2 °F 76% 30.06 in 10.0 mi NW 17.3 mph 23.0 mph N/A   Overcast
6:35 AM 53.6 °F 45.3 °F 74% 30.07 in 10.0 mi NW 15.0 mph 26.5 mph N/A   Overcast
6:55 AM 53.2 °F 43.9 °F 71% 30.08 in 10.0 mi NW 18.4 mph 24.2 mph N/A   Overcast
7:15 AM 53.2 °F 43.7 °F 70% 30.09 in 10.0 mi NW 13.8 mph 21.9 mph N/A   Scattered Clouds
7:35 AM 53.1 °F 43.5 °F 70% 30.09 in 10.0 mi NW 16.1 mph 23.0 mph N/A   Mostly Cloudy
7:55 AM 53.1 °F 42.8 °F 68% 30.10 in 10.0 mi NW 16.1 mph 26.5 mph N/A   Scattered Clouds
8:15 AM 53.8 °F 41.9 °F 64% 30.11 in 10.0 mi NW 23.0 mph 27.6 mph N/A   Mostly Cloudy
8:35 AM 54.1 °F 40.5 °F 60% 30.12 in 10.0 mi NW 18.4 mph 34.5 mph N/A   Mostly Cloudy
8:55 AM 53.6 °F 39.6 °F 59% 30.14 in 10.0 mi NNW 19.6 mph 31.1 mph N/A   Clear
9:15 AM 54.5 °F 39.9 °F 58% 30.14 in 10.0 mi NNW 16.1 mph 28.8 mph N/A   Clear
9:35 AM 55.2 °F 39.7 °F 56% 30.14 in 10.0 mi NNW 24.2 mph 32.2 mph N/A   Clear
9:55 AM 55.4 °F 39.2 °F 54% 30.15 in 10.0 mi NW 23.0 mph 32.2 mph N/A   Clear
10:15 AM 56.8 °F 39.6 °F 52% 30.15 in 10.0 mi NNW 20.7 mph 34.5 mph N/A   Scattered Clouds
10:35 AM 57.0 °F 39.2 °F 51% 30.16 in 10.0 mi NW 23.0 mph 33.4 mph N/A   Scattered Clouds
10:55 AM 59.0 °F 39.7 °F 49% 30.16 in 10.0 mi NNW 17.3 mph 32.2 mph N/A   Clear
11:15 AM 58.3 °F 38.7 °F 48% 30.17 in 10.0 mi NNW 20.7 mph 34.5 mph N/A   Clear
11:35 AM 60.3 °F 39.4 °F 46% 30.16 in 10.0 mi NNW 21.9 mph 31.1 mph N/A   Clear
11:55 AM 61.2 °F 39.7 °F 45% 30.16 in 10.0 mi NNW 18.4 mph 32.2 mph N/A   Clear
12:15 PM 62.2 °F 39.6 °F 43% 30.15 in 10.0 mi NW 19.6 mph 29.9 mph N/A   Clear
12:35 PM 62.2 °F 39.0 °F 42% 30.14 in 10.0 mi NW 18.4 mph 29.9 mph N/A   Clear
12:55 PM 62.6 °F 38.7 °F 41% 30.12 in 10.0 mi NW 21.9 mph 32.2 mph N/A   Clear
1:15 PM 63.5 °F 38.5 °F 40% 30.11 in 10.0 mi NNW 19.6 mph 34.5 mph N/A   Clear
1:35 PM 63.7 °F 38.1 °F 39% 30.10 in 10.0 mi NNW 23.0 mph 35.7 mph N/A   Clear
1:55 PM 64.8 °F 38.8 °F 38% 30.09 in 10.0 mi NW 19.6 mph 27.6 mph N/A   Clear
2:15 PM 65.7 °F 38.7 °F 37% 30.07 in 10.0 mi NNW 20.7 mph 31.1 mph N/A   Clear
2:35 PM 66.9 °F 39.2 °F 36% 30.06 in 10.0 mi NNW 18.4 mph 28.8 mph N/A   Clear
2:55 PM 68.0 °F 39.4 °F 35% 30.05 in 10.0 mi NW 19.6 mph 29.9 mph N/A   Clear
3:15 PM 68.2 °F 39.2 °F 35% 30.04 in 10.0 mi NW 19.6 mph 28.8 mph N/A   Clear
3:35 PM 69.1 °F 39.2 °F 34% 30.04 in 10.0 mi NW 19.6 mph 28.8 mph N/A   Clear
3:55 PM 68.9 °F 39.0 °F 34% 30.04 in 10.0 mi NW 18.4 mph 26.5 mph N/A   Clear
4:15 PM 69.8 °F 39.2 °F 33% 30.03 in 10.0 mi NNW 19.6 mph 27.6 mph N/A   Clear
4:35 PM 69.8 °F 39.0 °F 33% 30.03 in 10.0 mi NW 18.4 mph 27.6 mph N/A   Clear
4:55 PM 70.2 °F 38.5 °F 31% 30.03 in 10.0 mi NW 19.6 mph 31.1 mph N/A   Clear
5:15 PM 69.8 °F 38.7 °F 32% 30.03 in 10.0 mi NW 20.7 mph 27.6 mph N/A   Clear
5:35 PM 69.8 °F 38.8 °F 32% 30.02 in 10.0 mi NW 18.4 mph 28.8 mph N/A   Clear
5:55 PM 69.3 °F 38.7 °F 33% 30.03 in 10.0 mi NW 15.0 mph 25.3 mph N/A   Clear
6:15 PM 68.9 °F 39.6 °F 34% 30.03 in 10.0 mi NW 10.4 mph 24.2 mph N/A   Clear
6:35 PM 68.4 °F 39.4 °F 35% 30.03 in 10.0 mi NW 15.0 mph 24.2 mph N/A   Clear
6:55 PM 67.1 °F 40.1 °F 37% 30.03 in 10.0 mi NW 12.7 mph - N/A   Clear
7:15 PM 66.6 °F 39.9 °F 38% 30.04 in 10.0 mi NW 10.4 mph - N/A   Clear
7:35 PM 66.2 °F 39.9 °F 38% 30.04 in 10.0 mi NW 10.4 mph - N/A   Clear
7:55 PM 65.1 °F 40.5 °F 40% 30.05 in 10.0 mi NW 5.8 mph - N/A   Clear
8:15 PM 63.1 °F 41.4 °F 45% 30.06 in 10.0 mi WNW 5.8 mph - N/A   Clear
8:35 PM 61.7 °F 42.1 °F 49% 30.06 in 10.0 mi WNW 5.8 mph - N/A   Clear
8:55 PM 60.4 °F 42.8 °F 52% 30.06 in 10.0 mi WNW 5.8 mph - N/A   Clear
9:15 PM 60.3 °F 42.4 °F 52% 30.06 in 10.0 mi West 3.5 mph - N/A   Clear
9:35 PM 58.1 °F 43.2 °F 58% 30.07 in 10.0 mi West 4.6 mph - N/A   Clear
9:55 PM 56.7 °F 43.2 °F 61% 30.08 in 10.0 mi West 6.9 mph - N/A   Clear
10:15 PM 56.8 °F 43.2 °F 60% 30.08 in 10.0 mi West 4.6 mph - N/A   Clear
10:35 PM 55.6 °F 43.2 °F 63% 30.09 in 10.0 mi West 4.6 mph - N/A   Clear
10:55 PM 54.1 °F 42.8 °F 66% 30.09 in 10.0 mi West 3.5 mph - N/A   Clear
11:15 PM 53.8 °F 42.8 °F 66% 30.09 in 10.0 mi West 4.6 mph - N/A   Clear
11:35 PM 52.9 °F 42.8 °F 69% 30.08 in 10.0 mi West 4.6 mph - N/A   Clear
11:55 PM 52.0 °F 42.1 °F 69% 30.08 in 10.0 mi West 5.8 mph - N/A   Clear